Location: Courçay
(47.2523°N, 0.8761°E)
Time: 21:22:13
(UTC+00:00)

Cosmos 2278 Rocket - Pass Details

Date: 18 November 2025
Orbit: 841 x 843 km, 71.0° (Epoch: 05 December)

Event Time Altitude Azimuth Distance (km) Brightness Sun altitude
Rises 17:34:29 0° 203° (SSW) 3,384 5.9 -12.9°
Reaches altitude 10° 17:36:55 10° 202° (SSW) 2,454 5.1 -13.3°
Maximum altitude 17:42:33 84° 116° (ESE) 852 2.1 -14.2°
Drops below altitude 10° 17:48:14 10° 28° (NNE) 2,469 4.3 -15.2°
Enters shadow 17:48:31 - 28° (NNE) 2,579 4.3 -15.2°
